Regional Weather Roundup
Issued by NWS

Home | Current Version | Previous Version | Graphics & Text | Print | Product List | Glossary On
Versions: 1 2 3 4 5 6 7 8 9 10 11 12 13 14 15 16 17 18 19 20 21 22 23 24 25 26 27 28 29 30 31 32 33 34 35 36 37 38 39 40 41 42 43 44 45 46 47 48 49 50
000
ASUS43 KMPX 271710
RWRMN
WEATHER ROUNDUP FOR MINNESOTA
NATIONAL WEATHER SERVICE TWIN CITIES/CHANHASSEN MN
1200 PM CDT TUE SEP 27 2016


NOTE: "FAIR" INDICATES FEW OR NO CLOUDS BELOW 12,000 FEET WITH NO
SIGNIFICANT WEATHER AND/OR OBSTRUCTIONS TO VISIBILITY. N/A MEANS
CURRENT SKY AND/OR WEATHER CONDITIONS ARE NOT AVAILABLE.

MNZ060>063-068>070-271800-
   Twin Cities Metro

CITY           SKY/WX    TMP DP  RH WIND       PRES   REMARKS
TWIN CITIES    PTSUNNY   57  42  57 NW18G26   29.81F
ST PAUL        CLOUDY    56  42  59 NW18G28   29.81F
CRYSTAL        PTSUNNY   57  40  52 NW16      29.81S
BLAINE           N/A     55  45  67 NW15G29   29.80S
LAKEVILLE      FAIR      57  43  58 W13G23    29.81F
EDEN PRAIRIE   FAIR      61  41  47 NW18G29   29.81F
LAKEVILLE      FAIR      57  43  58 W13G23    29.81F
SOUTH ST PAUL  PTSUNNY   57  41  55 NW15G26   29.80F
LAKE ELMO      CLOUDY    55  43  62 W15G24    29.81S
$$
MNZ001>005-007-008-013>017-022>024-027-028-271800-
   Northwest Minnesota

CITY           SKY/WX    TMP DP  RH WIND       PRES   REMARKS
BEMIDJI        CLOUDY    47  42  81 NW13G24   29.81R
HALLOCK        PTSUNNY   52  45  76 NW18G28   29.89S
ROSEAU         CLOUDY    52  45  76 N18G24    29.84R
WARROAD        CLOUDY    48  43  81 N15       29.84R
THIEF RVR FALL CLOUDY    50  42  74 NW23      29.87S
CROOKSTON      CLOUDY    52  43  71 N20G28    29.90S
FOSSTON        CLOUDY    48  41  76 NW15G23   29.86S
DETROIT LAKES  PTSUNNY   50  41  71 NW18G24   29.88S
MOORHEAD       FAIR      57  41  54 NW17G24   29.90F
PARK RAPIDS    CLOUDY    51  40  65 NW14      29.82S
MAHNOMEN       CLOUDY    50  42  74 NW17G23   29.87F
$$
MNZ006-009>011-018-025>026-271800-
   North Central Minnesota

CITY           SKY/WX    TMP DP  RH WIND       PRES   REMARKS
BAUDETTE       LGT RAIN  47  45  93 NW16G22   29.80R FOG
FLAG ISLAND    DRIZZLE   46  43  87 N17       29.81R
INTL FALLS     LGT RAIN  47  44  90 NW10      29.75R
WASKISH        LGT RAIN  46  45  93 NW10G16   29.80R
BIG FORK       LGT RAIN  48  45  87 NW8       29.76S
GRAND RAPIDS   LGT RAIN  48  44  86 NW18G24   29.77R
ORR            CLOUDY    46  43  87 NW8G16    29.70S FOG
COOK           LGT RAIN  48  45  87 NW7       29.72R
WALKER         CLOUDY    48  42  78 NW12      29.80S
$$
MNZ012-019>021-037-271800-
   Northeast Minnesota

CITY           SKY/WX    TMP DP  RH WIND       PRES   REMARKS
DULUTH         LGT RAIN  50  46  86 NW14G24   29.69S
ELY            RAIN      45  43  93 NW9G20    29.67S
HIBBING        LGT RAIN  47  43  86 NW18G28   29.72R
EVELETH        DRIZZLE   47  44  88 NW13G21   29.71S
DULUTH HARBOR  CLOUDY    54  46  76 W16       29.71S
TWO HARBORS    FAIR      52  46  82 NW8       29.65R
SILVER BAY     PTSUNNY   52  45  76 NW6G17    29.63R
GRAND MARAIS     N/A     54  44  69 MISG      29.57F
G MARAIS ARPRT CLOUDY    48  43  81 NW14G23   29.59R HAZE
$$
MNZ029>031-032-039>041-046>048-054>057-064-271800-
   West Central Minnesota

CITY           SKY/WX    TMP DP  RH WIND       PRES   REMARKS
FERGUS FALLS   FAIR      57  43  58 NW17G25   29.91S
MORRIS         FAIR      61  37  41 NW20G28   29.88F
ALEXANDRIA     FAIR      57  40  52 NW25G33   29.87F
ELBOW LAKE     FAIR      56  39  53 NW21G28   29.89F
WADENA         PTSUNNY   52  41  66 NW14G22   29.84F
GLENWOOD       FAIR      57  43  58 W20G28    29.86F
APPLETON       FAIR      63  34  34 NW13G25   29.90F
BENSON         FAIR      61  36  39 N22       29.89F
ORTONVILLE     FAIR      61  36  39 NW14G23   29.92F
MADISON        FAIR      63  39  42 NW14      29.92F
WILLMAR        FAIR      61  39  44 NW23G31   29.88F
$$
MNZ033>034-036-042>043-049>051-058-059-271800-
   Central Minnesota

CITY           SKY/WX    TMP DP  RH WIND       PRES   REMARKS
ST CLOUD       FAIR      55  43  63 NW17G24   29.82F
SAUK CENTRE    FAIR      55  40  57 W20G25    29.84F
PAYNESVILLE    FAIR      58  38  47 W15G25    29.85F
AITKIN         MIX PCPN  52  43  71 NW10      29.77S
PINE RIVER     CLOUDY    50  43  76 NW9G18    29.84S
BRAINERD       CLOUDY    51  42  71 NW17G24   29.80S
STAPLES        PTSUNNY   52  39  62 NW13G23   29.83S
LONG PRAIRIE   FAIR      54  41  62 W15G23    29.84S
LITTLE FALLS   FAIR      52  39  62 NW15G22   29.82S
LITCHFIELD     FAIR      61  43  51 W14G22    29.85F
BUFFALO        FAIR      56  40  54 W14G21    29.83F
MAPLE LAKE     FAIR      59  45  59 W14G25    29.83F
HUTCHINSON     FAIR      60  40  47 W23G29    29.85F
$$
MNZ037-044-045-052-053-271800-
   East Central Minnesota

CITY           SKY/WX    TMP DP  RH WIND       PRES   REMARKS
PRINCETON      CLOUDY    55  45  67 W15       29.80F
MORA           CLOUDY    50  41  71 NW12      29.79S
CAMBRIDGE      CLOUDY    55  43  62 NW15G22   29.78R
MOOSE LAKE     LGT RAIN  50  45  81 NW9G20    29.73S
HINCKLEY       CLOUDY    52  45  76 NW10      29.77R
CLOQUET        RAIN      50  43  76 NW9G17    29.72S
MCGREGOR       CLOUDY    50  45  81 NW12      29.76S
$$
MNZ071>073-080-081-089-090-097-098-271800-
   Southwest Minnesota

CITY           SKY/WX    TMP DP  RH WIND       PRES   REMARKS
MONTEVIDEO     FAIR      63  37  39 NW14G24   29.91F
GRANITE FALLS  FAIR      63  37  38 W17G25    29.91F
CANBY          FAIR      63  36  37 W16G24    29.93F
MARSHALL       FAIR      63  36  36 NW14      29.91F
REDWOOD FALLS  FAIR      61  34  36 NW20G33   29.89F
OLIVIA         FAIR      61  36  39 NW16G24   29.87F
PIPESTONE      FAIR      64  34  32 NW14      29.94F
WINDOM         FAIR      63  30  29 W14G23    29.91F
WORTHINGTON    FAIR      63  38  39 NW17G25   29.94F
JACKSON        FAIR      63  30  29 W14       29.92F
TRACY          FAIR      65  34  32 NW14G21   29.92F
SLAYTON        FAIR      63  32  31 W16G24    29.93F
$$
MNZ065>067-074>077-082>085-091>093-271800-
   South Central Minnesota

CITY           SKY/WX    TMP DP  RH WIND       PRES   REMARKS
MANKATO        FAIR      60  39  45 W18G25    29.86F
NEW ULM        FAIR      61  36  39 NW20G28   29.87F
ST JAMES       FAIR      63  37  39 W13G20    29.90F
FAIRMONT       FAIR      62  34  35 NW17G29   29.90F
GLENCOE        FAIR      60  43  52 W16G26    29.83F
FARIBAULT      FAIR      61  43  51 W15G24    29.84F
OWATONNA       FAIR      61  39  44 W15       29.84F
WASECA         FAIR      59  39  47 W18G24    29.87F
ALBERT LEA     FAIR      63  34  34 NW20G28   29.86F
$$
MNZ078>079-086>088-094>096-271800-
   Southeast Minnesota

CITY           SKY/WX    TMP DP  RH WIND       PRES   REMARKS
ROCHESTER      FAIR      61  40  45 NW17G25   29.82F
RED WING       PTSUNNY   57  41  54 NW13G23   29.78F
STANTON        FAIR      60  42  50 NW17G28   29.80F
DODGE CENTER   FAIR      57  39  51 NW18G28   29.82F
WINONA         PTSUNNY   59  43  55 NW14G21   29.78F
AUSTIN         FAIR      61  37  41 W22G29    29.84F
PRESTON        FAIR      58  39  49 NW21G30   29.82F
$$
ABBREVIATIONS USED IN REMARKS
   TC - TEMPERATURES IN CELSIUS
  WCI - WIND CHILL INDEX
   HX - HEAT INDEX
  VSB - VISIBILITY
$$




USA.gov is the U.S. government's official web portal to all federal, state and local government web resources and services.